Regional Weather Roundup
Issued by NWS

Home | Current Version | Previous Version | Text Only | Print | Product List | Glossary On
Versions: 1 2 3 4 5 6 7 8 9 10 11 12 13 14 15 16 17 18 19 20 21 22 23 24 25 26 27 28 29 30 31 32 33 34 35 36 37 38 39 40 41 42 43 44 45 46 47 48 49 50
000
ASUS45 KPSR 242110
RWRAZ

ARIZONA HOURLY REGIONAL WEATHER ROUNDUP
NATIONAL WEATHER SERVICE PHOENIX AZ
200 PM MST TUE APR 24 2018

NOTE: FAIR INDICATES FEW OR NO CLOUDS BELOW 12,000 FEET WITH NO
SIGNIFICANT WEATHER AND/OR OBSTRUCTIONS TO VISIBILITY.

AZZ001>003-036-242200-
NORTHWEST ARIZONA

CITY           SKY/WX    TMP DP  RH WIND       PRES   REMARKS
BULLHEAD CITY  SUNNY     97  25   7 CALM      29.85F
KINGMAN        SUNNY     88  22   9 MISG      30.01F
$$

AZZ004>008-015-016-018-242200-
NORTH CENTRAL ARIZONA

CITY           SKY/WX    TMP DP  RH WIND       PRES   REMARKS
GRAND CANYON   SUNNY     73  15  11 VRB3      30.18F
WILLIAMS       SUNNY     73  14  10 VRB7G21   30.18S
PRESCOTT       SUNNY     80  17   9 VRB7G16   30.10F
FLAGSTAFF      SUNNY     70  14  11 VRB5G23   30.20F
PAYSON         SUNNY     81  12   7 SW10G17   30.11S
PAGE           SUNNY     81  23  11 N10       30.02F
$$

AZZ009>014-017-242200-
NORTHEAST ARIZONA

CITY           SKY/WX    TMP DP  RH WIND       PRES   REMARKS
WINSLOW        MOSUNNY   84  20   9 E8G17     30.04F
SAINT JOHNS    SUNNY     81  14   8 W20       30.09F
WINDOW ROCK    SUNNY     76   5   6 VRB5G24   30.15F
SHOW LOW       SUNNY     77  10   8 SW12G20   30.16F
$$

AZZ540-542>544-546-548-242200-
GREATER PHOENIX AREA

CITY           SKY/WX    TMP DP  RH WIND       PRES   REMARKS
PHOENIX        MOSUNNY   96  23   7 W10       29.87F
BUCKEYE        SUNNY     93  27   9 SW7       29.89F
GLENDALE       MOSUNNY   95  19   6 CALM      29.90F
DEER VALLEY    SUNNY     94  19   6 SW10G18   29.90F
SCOTTSDALE     SUNNY     94  29  10 VRB3      29.91F
MESA-FALCON    MOSUNNY   95  27   8 S7        29.91F
MESA-GATEWAY   MOSUNNY   93  25   8 N5        29.91F
CHANDLER       MOSUNNY   93  21   7 NW9       29.89F
$$

AZZ539-553-242200-
SOUTHWEST MARICOPA COUNTY AND PINAL COUNTY

CITY           SKY/WX    TMP DP  RH WIND       PRES   REMARKS
CASA GRANDE    SUNNY     93  26   9 SW8       29.91F
$$

AZZ503-504-507>509-242200-
SOUTHEAST ARIZONA

CITY           SKY/WX    TMP DP  RH WIND       PRES   REMARKS
TUCSON         SUNNY     93  19   7 NW7       29.98F
RYAN FIELD     SUNNY     93  19   7 W13G23    29.96F
NOGALES        PTSUNNY   89  18   7 W13G21    30.04F
SIERRA VISTA   MOSUNNY   86  15   7 W3        30.10F
DOUGLAS        MOSUNNY   86  16   7 CALM      30.04F
SAFFORD        SUNNY     90  15   6 MISG      29.97F
$$

AZZ532-242200-
SOUTHWEST ARIZONA

CITY           SKY/WX    TMP DP  RH WIND       PRES   REMARKS
YUMA           PTSUNNY   94  33  11 S7        29.86F
$$

CAZ041-043-047-048-061-525>527-560>570-242200-
SOUTHERN CALIFORNIA

CITY           SKY/WX    TMP DP  RH WIND       PRES   REMARKS
DOWNTOWN L.A.  SUNNY     69  53  56 VRB5      30.00F
L.A. AIRPORT   PTSUNNY   62  52  69 W13       30.03F
SAN DIEGO      PTSUNNY   66  52  60 W8        30.04S
BURBANK        SUNNY     76  50  40 S7        29.99F
ONTARIO        PTSUNNY   82  42  24 W12G21    29.99F
RIVERSIDE      MOSUNNY   85  27  12 W13       29.97F
PALM SPRINGS   MOSUNNY   97  26   8 W6        29.87F
EL CENTRO NAS  PTSUNNY   94  31  10 SE5       29.85F
IMPERIAL       MOSUNNY   94  36  13 W6        29.84F
BLYTHE         MOSUNNY   96  33  11 MISG      29.85F
NEEDLES        SUNNY    100  24   6 VRB3      29.86F
$$

NVZ020-UTZ003-242200-
SOUTHERN NEVADA-UTAH

CITY           SKY/WX    TMP DP  RH WIND       PRES   REMARKS
LAS VEGAS      MOSUNNY   88  24  10 MISG      29.95F
SALT LAKE CITY MOSUNNY   64  32  30 W12       30.26F
$$

NMZ009-TXZ055-242200-
NEW MEXICO-WEST TEXAS

CITY           SKY/WX    TMP DP  RH WIND       PRES   REMARKS
ALBUQUERQUE    PTSUNNY   80  18  10 S13G23    30.07F
EL PASO        MOSUNNY   89  17   7 CALM      30.00F
$$


........................KEY........................
SKY/WX - SKY CONDITION/WEATHER
TMP    - TEMPERATURE IN FAHRENHEIT
DP     - DEW POINT IN FAHRENHEIT
RH     - RELATIVE HUMIDITY IN PERCENT
WIND   - DIRECTION AND SPEED IN MILES PER HOUR (MPH)
VRB    - VARIABLE WIND DIRECTION
PRES   - MEAN SEA LEVEL PRESSURE IN INCHES OF MERCURY
         F - FALLING PRESSURE   R - RISING PRESSURE
         S - STEADY PRESSURE
VSB    - VISIBILITY IN MILES
HX     - HEAT INDEX IN FAHRENHEIT
WCI    - WIND CHILL INDEX IN FAHRENHEIT
TC     - TEMPERATURE IN CELSIUS WHICH IS ALSO KNOWN AS
         TEMPERATURE IN CENTIGRADE
AFB    - AIR FORCE BASE
         LUKE AFB IS LUKE AIR FORCE BASE
         DAVIS-MONTHAN IS DAVIS-MONTHAN AIR FORCE BASE
NAS    - NAVAL AIR STATION
         EL CENTRO NAS IS EL CENTRO NAVAL AIR STATION
N/A    - NOT AVAILABLE




USA.gov is the U.S. government's official web portal to all federal, state and local government web resources and services.